St. Paul Lake Elmo, MN

11:36 AM CST on November 15, 2019 (GMT -0600)
St. Paul Lake Elmo

Weather History for K21D - September, 2019

Change the Weather History Date:

Sunday, September 29, 2019

  Actual Average (KSTP) Record (KSTP)
Temperature  
Mean Temperature 52 °F -  
Max Temperature 57 °F 63 °F 84 °F (2000)
Min Temperature 48 °F 42 °F 34 °F (2003)
Degree Days  
Heating Degree Days 12    
Growing Degree Days 2 (Base 50)    
Moisture  
Dew Point 50 °F    
Average Humidity 92    
Maximum Humidity 100    
Minimum Humidity 62    
Precipitation  
Precipitation 0.23 in - - ()
Sea Level Pressure  
Sea Level Pressure 30.13 in    
Wind  
Wind Speed 9 mph (East)    
Max Wind Speed 15 mph    
Max Gust Speed 22 mph    
Visibility 8 miles    
Events Rain , Thunderstorm    
Averages and records for this station are not official NWS values.
T = Trace of Precipitation, MM = Missing Value Source: NWS Daily Summary

Daily Weather History Graph

Daily Weather History Graph

Search for Another Location

Airport or City:

Astronomy

Sep. 29, 2019 Rise Set
Actual Time 7:06 AM CDT 6:56 PM CDT
Civil Twilight 6:37 AM CDT 7:25 PM CDT
Nautical Twilight 6:03 AM CDT 7:59 PM CDT
Astronomical Twilight 5:28 AM CDT 8:33 PM CDT
Moon 7:58 AM CDT (9/29) 7:54 PM CDT (9/29)
Length of Visible Light 12h 47m
Length of Day
11h 49m
New Moon, 1% of the Moon is Illuminated
Sep 29
New Moon
Oct 5
First Quarter
Oct 13
Full
Oct 21
Last Quarter
Oct 27
New

Hourly Weather History & Observations

Time (CDT) Temp. Dew Point Humidity Pressure Visibility Wind Dir Wind Speed Gust Speed Precip Events Conditions
12:16 AM 51.8 °F 39.2 °F 62% 30.25 in 10.0 mi East 6.9 mph - N/A   Scattered Clouds
12:36 AM 51.8 °F 39.2 °F 62% 30.25 in 10.0 mi ENE 3.5 mph - N/A   Overcast
12:55 AM 51.8 °F 41.0 °F 67% 30.24 in 10.0 mi East 5.8 mph - N/A   Overcast
12:56 AM 51.8 °F 41.0 °F 67% 30.24 in 10.0 mi ENE 6.9 mph - N/A   Overcast
1:15 AM 51.8 °F 41.0 °F 67% 30.23 in 10.0 mi East 8.1 mph - N/A   Overcast
1:19 AM 51.8 °F 41.0 °F 67% 30.23 in 10.0 mi East 6.9 mph - N/A   Overcast
1:38 AM 51.8 °F 41.0 °F 67% 30.21 in 10.0 mi East 11.5 mph - N/A   Overcast
1:55 AM 50.0 °F 42.8 °F 76% 30.22 in 10.0 mi East 6.9 mph - N/A Rain Light Rain
2:15 AM 50.0 °F 44.6 °F 82% 30.22 in 10.0 mi NE 6.9 mph - 0.01 in Rain Light Rain
2:35 AM 50.0 °F 44.6 °F 82% 30.22 in 10.0 mi ENE 6.9 mph - 0.01 in Rain Light Rain
2:36 AM 50.0 °F 44.6 °F 82% 30.22 in 10.0 mi East 6.9 mph - 0.01 in Rain Light Rain
2:59 AM 50.0 °F 44.6 °F 82% 30.21 in 10.0 mi ENE 8.1 mph - 0.01 in   Light Drizzle
3:17 AM 50.0 °F 46.4 °F 87% 30.20 in 10.0 mi ENE 8.1 mph - N/A   Overcast
3:35 AM 50.0 °F 46.4 °F 87% 30.20 in 10.0 mi ESE 10.4 mph - N/A   Overcast
3:36 AM 51.8 °F 46.4 °F 82% 30.20 in 10.0 mi ESE 9.2 mph - N/A   Overcast
3:55 AM 51.8 °F 44.6 °F 76% 30.21 in 10.0 mi ESE 10.4 mph 20.7 mph N/A   Light Drizzle
3:56 AM 51.8 °F 44.6 °F 76% 30.21 in 10.0 mi ESE 9.2 mph 20.7 mph N/A   Light Drizzle
4:15 AM 50.0 °F 46.4 °F 87% 30.22 in 10.0 mi East 11.5 mph 17.3 mph N/A   Light Drizzle
4:20 AM 50.0 °F 44.6 °F 82% 30.22 in 10.0 mi East 8.1 mph 17.3 mph N/A   Overcast
4:37 AM 50.0 °F 46.4 °F 87% 30.22 in 10.0 mi ENE 9.2 mph - N/A Rain Rain
4:55 AM 50.0 °F 46.4 °F 87% 30.22 in 10.0 mi East 11.5 mph - 0.02 in Rain Rain
5:15 AM 50.0 °F 46.4 °F 87% 30.23 in 10.0 mi ENE 9.2 mph - N/A Rain Rain
5:16 AM 50.0 °F 46.4 °F 87% 30.23 in 10.0 mi ENE 9.2 mph - 0.01 in Rain Rain
5:35 AM 50.0 °F 46.4 °F 87% 30.22 in 7.0 mi ENE 11.5 mph - 0.03 in Rain Light Rain
5:36 AM 50.0 °F 46.4 °F 87% 30.22 in 7.0 mi ENE 10.4 mph - 0.03 in Rain Light Rain
5:58 AM 48.2 °F 48.2 °F 100% 30.20 in 4.0 mi ENE 11.5 mph - 0.05 in Rain Light Rain
6:17 AM 48.2 °F 48.2 °F 100% 30.19 in 5.0 mi ENE 12.7 mph 19.6 mph 0.01 in Rain Rain
6:36 AM 50.0 °F 48.2 °F 94% 30.19 in 5.0 mi East 15.0 mph 21.9 mph 0.04 in Rain Light Rain
6:55 AM 50.0 °F 48.2 °F 94% 30.19 in 5.0 mi East 10.4 mph 19.6 mph 0.06 in Rain Light Rain
7:15 AM 50.0 °F 48.2 °F 94% 30.19 in 7.0 mi East 11.5 mph 17.3 mph N/A Rain Rain
7:38 AM 50.0 °F 48.2 °F 94% 30.20 in 4.0 mi East 5.8 mph - 0.02 in Rain Rain
7:56 AM 50.0 °F 50.0 °F 100% 30.19 in 7.0 mi East 9.2 mph - 0.03 in   Light Drizzle
8:15 AM 50.0 °F 50.0 °F 100% 30.19 in 5.0 mi East 10.4 mph - 0.01 in   Drizzle
8:16 AM 50.0 °F 50.0 °F 100% 30.19 in 4.0 mi East 10.4 mph - 0.01 in   Drizzle
8:35 AM 50.0 °F 50.0 °F 100% 30.19 in 2.5 mi East 9.2 mph 16.1 mph 0.03 in Rain Light Rain
8:36 AM 50.0 °F 50.0 °F 100% 30.19 in 2.5 mi East 9.2 mph 16.1 mph 0.03 in Rain Light Rain
8:58 AM 50.0 °F 50.0 °F 100% 30.19 in 3.0 mi East 10.4 mph - 0.04 in Rain Light Rain
9:17 AM 50.0 °F 50.0 °F 100% 30.19 in 3.0 mi East 6.9 mph - 0.01 in   Drizzle
9:36 AM 51.8 °F 50.0 °F 94% 30.18 in 5.0 mi East 8.1 mph - 0.01 in   Overcast
9:55 AM 51.8 °F 50.0 °F 94% 30.18 in 5.0 mi East 10.4 mph - 0.01 in   Overcast
10:15 AM 51.8 °F 50.0 °F 94% 30.18 in 4.0 mi East 8.1 mph - N/A   Overcast
10:20 AM 51.8 °F 51.8 °F 100% 30.17 in 3.0 mi East 8.1 mph - N/A   Overcast
10:37 AM 51.8 °F 51.8 °F 100% 30.17 in 3.0 mi East 9.2 mph 16.1 mph N/A   Overcast
10:55 AM 51.8 °F 51.8 °F 100% 30.17 in 4.0 mi East 8.1 mph 16.1 mph N/A   Overcast
11:15 AM 51.8 °F 51.8 °F 100% 30.17 in 2.5 mi East 8.1 mph - N/A   Overcast
11:16 AM 51.8 °F 51.8 °F 100% 30.16 in 2.5 mi East 8.1 mph - N/A   Overcast
11:35 AM 51.8 °F 51.8 °F 100% 30.16 in 3.0 mi ESE 10.4 mph - N/A   Overcast
11:36 AM 51.8 °F 51.8 °F 100% 30.16 in 3.0 mi East 10.4 mph - N/A   Overcast
11:59 AM 53.6 °F 51.8 °F 94% 30.15 in 5.0 mi ESE 9.2 mph 17.3 mph N/A   Overcast
12:17 PM 53.6 °F 51.8 °F 94% 30.14 in 5.0 mi ESE 12.7 mph 19.6 mph N/A   Overcast
12:36 PM 53.6 °F 51.8 °F 94% 30.14 in 4.0 mi ESE 9.2 mph 18.4 mph N/A   Overcast
12:55 PM 53.6 °F 53.6 °F 100% 30.13 in 7.0 mi ESE 11.5 mph 18.4 mph N/A   Overcast
12:56 PM 53.6 °F 53.6 °F 100% 30.13 in 10.0 mi ESE 9.2 mph 18.4 mph N/A   Overcast
1:15 PM 53.6 °F 53.6 °F 100% 30.12 in 10.0 mi ESE 11.5 mph - N/A   Overcast
1:37 PM 53.6 °F 51.8 °F 94% 30.11 in 10.0 mi ESE 9.2 mph 18.4 mph N/A   Overcast
1:56 PM 53.6 °F 53.6 °F 100% 30.10 in 10.0 mi ESE 9.2 mph - N/A   Overcast
2:15 PM 55.4 °F 53.6 °F 94% 30.11 in 10.0 mi ESE 8.1 mph - N/A   Overcast
2:16 PM 55.4 °F 53.6 °F 94% 30.11 in 10.0 mi ESE 8.1 mph - N/A   Overcast
2:35 PM 55.4 °F 53.6 °F 94% 30.10 in 10.0 mi ESE 10.4 mph - N/A   Overcast
2:58 PM 55.4 °F 53.6 °F 94% 30.09 in 10.0 mi SE 8.1 mph - N/A   Overcast
3:17 PM 55.4 °F 53.6 °F 94% 30.09 in 10.0 mi ESE 9.2 mph - N/A   Overcast
3:36 PM 55.4 °F 53.6 °F 94% 30.08 in 4.0 mi East 9.2 mph - N/A   Overcast
3:55 PM 55.4 °F 53.6 °F 94% 30.08 in 5.0 mi East 8.1 mph - N/A   Overcast
4:15 PM 55.4 °F 53.6 °F 94% 30.08 in 7.0 mi East 9.2 mph - N/A   Overcast
4:19 PM 55.4 °F 53.6 °F 94% 30.08 in 7.0 mi ESE 10.4 mph - N/A   Overcast
4:37 PM 55.4 °F 53.6 °F 94% 30.07 in 10.0 mi ESE 11.5 mph 17.3 mph N/A   Overcast
4:56 PM 55.4 °F 53.6 °F 94% 30.07 in 10.0 mi ESE 8.1 mph - N/A   Overcast
5:15 PM 55.4 °F 53.6 °F 94% 30.06 in 10.0 mi ESE 10.4 mph 17.3 mph N/A   Overcast
5:16 PM 55.4 °F 53.6 °F 94% 30.06 in 10.0 mi ESE 10.4 mph 17.3 mph N/A   Overcast
5:35 PM 55.4 °F 53.6 °F 94% 30.06 in 10.0 mi ESE 8.1 mph - N/A   Overcast
5:36 PM 55.4 °F 53.6 °F 94% 30.06 in 10.0 mi ESE 6.9 mph - N/A   Overcast
5:58 PM 55.4 °F 53.6 °F 94% 30.05 in 10.0 mi ESE 9.2 mph - N/A   Overcast
6:17 PM 55.4 °F 53.6 °F 94% 30.05 in 10.0 mi ESE 9.2 mph - N/A   Overcast
6:36 PM 55.4 °F 53.6 °F 94% 30.05 in 10.0 mi ESE 9.2 mph 16.1 mph N/A   Overcast
6:55 PM 55.4 °F 53.6 °F 94% 30.04 in 7.0 mi ESE 8.1 mph - N/A   Overcast
6:56 PM 55.4 °F 53.6 °F 94% 30.04 in 7.0 mi ESE 8.1 mph - N/A   Overcast
7:15 PM 55.4 °F 53.6 °F 94% 30.04 in 3.0 mi East 6.9 mph - N/A   Overcast
7:19 PM 55.4 °F 53.6 °F 94% 30.04 in 5.0 mi ESE 8.1 mph - N/A   Overcast
7:38 PM 55.4 °F 53.6 °F 94% 30.03 in 10.0 mi East 9.2 mph - N/A   Overcast
7:55 PM 55.4 °F 53.6 °F 94% 30.03 in 10.0 mi East 10.4 mph 17.3 mph N/A   Overcast
8:15 PM 55.4 °F 53.6 °F 94% 30.03 in 10.0 mi ESE 8.1 mph - N/A   Overcast
8:35 PM 55.4 °F 53.6 °F 94% 30.03 in 10.0 mi ESE 10.4 mph 16.1 mph N/A   Overcast
8:36 PM 55.4 °F 53.6 °F 94% 30.03 in 10.0 mi ESE 10.4 mph - N/A   Overcast
8:58 PM 55.4 °F 55.4 °F 100% 30.03 in 7.0 mi ESE 10.4 mph - N/A   Overcast
9:17 PM 55.4 °F 55.4 °F 100% 30.04 in 3.0 mi ESE 9.2 mph - N/A   Overcast
9:36 PM 55.4 °F 55.4 °F 100% 30.03 in 5.0 mi ESE 11.5 mph 16.1 mph N/A Thunderstorm Overcast
9:55 PM 55.4 °F 55.4 °F 100% 30.01 in 3.0 mi ESE 9.2 mph 19.6 mph N/A   Overcast
10:15 PM 55.4 °F 55.4 °F 100% 30.02 in 4.0 mi ESE 9.2 mph - N/A Thunderstorm Overcast
10:19 PM 55.4 °F 55.4 °F 100% 30.02 in 4.0 mi ESE 9.2 mph - N/A Thunderstorm Overcast
10:37 PM 55.4 °F 55.4 °F 100% 30.01 in 4.0 mi ESE 9.2 mph - N/A Thunderstorm Overcast
10:56 PM 55.4 °F 55.4 °F 100% 29.99 in 7.0 mi ESE 11.5 mph 16.1 mph N/A Rain , Thunderstorm Light Thunderstorms and Rain
11:15 PM 57.2 °F 55.4 °F 94% 29.97 in 10.0 mi SE 10.4 mph 16.1 mph N/A Thunderstorm Overcast
11:35 PM 57.2 °F 55.4 °F 94% 29.96 in 10.0 mi SE 6.9 mph 20.7 mph N/A Thunderstorm Thunderstorm
11:39 PM 57.2 °F 55.4 °F 94% 29.97 in 10.0 mi ESE 4.6 mph - 0.01 in Thunderstorm Thunderstorm
11:58 PM 57.2 °F 57.2 °F 100% 29.97 in 10.0 mi NE 5.8 mph - 0.01 in Thunderstorm Thunderstorm